SL-16 DEB, 39300

Orbit data source: Space-Track

SL-16 DEB, 39300 is space debris in LEO originally from a launch on Fri, 25 Dec 1992 UTC launched from the Tyuratam Missile And Space Complex (TTMTR). Debris objects in space refer to the collection of defunct objects orbiting the Earth. Examples of debris include non-operational satellites, rocket bodies, and fragments generated from explosions, collisions, or faulty payload assembly.

Loading next visibility...
Identifier
39300, 1992-093JR
Orbit
LEO
Country
Flag of CISCIS
Related business
Manufacturer
Unknown
Mission
Spacecraft
Bus & Motor
Unknown
Mass
Unknown
Launch date (UTC)
1992-12-25 (33 years ago)
Launch vehicle
Unknown
Launch site
Tyuratam Missile And Space Complex (TTMTR)
Object type
Payload
Rocket body
Debris
Shape & HBR
Unknown shape, 0.1 m
Radar Cross Section
Small (<0.1 m²)

Expand to show TLE details & history
Last TLE update: 1 day ago

TLE from 1 day ago
0 SL-16 DEB
1 39300U 92093JR  26126.28911250  .00000161  00000-0  14140-3 0  9994
2 39300  71.1191 136.2464 0103853 352.8864   7.0769 13.96950051644089
Epoch: 2026-05-06T06:56Z
TLE epoch observation values (Epoch: 2026-05-06T06:56:19.320Z)
Latitude
-0.00005°
Longitude
168.01415°
Altitude
831.71 km
Speed
7.476 km/s
True Right ascension
09h 04m 59s
True Declination
0° 00' 00"
Sunlit
Object was in daylight at epoch
Visualization orbit readout
Latitude
Unknown
Longitude
Unknown
Altitude
Unknown
Speed
Unknown
Apparent Right ascension
Unknown
Apparent Declination
Unknown
Sunlit
N/A
Visualization observer readout
Local Sidereal Time
17:20:39
Azimuth
Unknown
Elevation
Unknown
Doppler factor
Unknown
Orbital elements
Apogee altitude
977.916 km
Perigee altitude
826.697 km
Semi-major axis
7,280.444 km
Eccentricity
0.01039
Inclination
71.1191°
RAAN
136.2464°
Arg. of periapsis
352.8864°
True anomaly
7.22543°
Mean anomaly
7.0769°
Eccentric anomaly
7.15097°
Mean motion
3.49387 °/min
Orbital period
103.04 mins
BSTAR
0.0001414
Loading maneuver chart data...
Computing Atmospheric mass density...
Loading historical data...
Loading historical data...
Loading historical data...
Loading historical data...
Loading historical data...
Loading historical data...
Loading historical data...

Documentation

Showing up to 5 results
|